Date String (YYYY-MM-DD hh:mm:ss) UTC,Instrument flags,Ambient pressure (hPa),Sample flow (lpm),Bypass flow (lpm),Sample temperature (°C),Ambient temperature (°C),ASC tube jacket temperature (°C),LED temperature (°C),Box temperature (°C),Sample RH (%),Span deviation,Mass concentration (μg/m³),Mass concentration (μg/m³),Mass concentration (μg/m³)
DateTimeUTC,F1_M11,P_M11,Q1_M11,Q2_M11,T1_M11,T2_M11,T3_M11,T4_M11,T5_M11,U1_M11,ZSPAN_M11,X0_M11,X2_M11,X1_M11
2021-09-26 12:00:00,,0826.2,4.99,0.00,30.3,27.4,00.0,39.4,31.7,10.0,0002.0,0014.28,0007.06,0006.22
2021-09-26 12:01:00,,0826.2,4.99,0.00,30.2,26.6,00.0,39.4,31.4,10.1,0001.7,0013.67,0006.93,0006.16
2021-09-26 12:02:00,,0826.2,5.01,0.00,30.1,26.8,00.0,39.3,31.4,10.1,0002.1,0012.83,0006.82,0006.07
2021-09-26 12:03:00,,0826.2,5.01,0.00,30.0,27.2,00.0,39.3,31.4,10.1,0001.8,0012.91,0006.76,0006.02
2021-09-26 12:04:00,,0826.2,5.00,0.00,30.0,27.6,00.0,39.2,31.5,10.1,0001.5,0012.76,0006.73,0005.99
2021-09-26 12:05:00,,0826.2,5.00,0.00,29.9,27.9,00.0,39.2,31.5,10.2,0001.4,0012.52,0006.72,0005.96
2021-09-26 12:06:00,,0826.2,4.99,0.00,29.9,28.1,00.0,39.2,31.6,10.2,0000.9,0012.43,0006.72,0005.94
2021-09-26 12:07:00,,0826.2,5.01,0.00,30.0,28.3,00.0,39.2,31.6,10.2,0001.0,0012.49,0006.73,0005.94
2021-09-26 12:08:00,,0826.1,4.98,0.00,30.0,28.5,00.0,39.2,31.6,10.2,0001.2,0012.40,0006.71,0005.93
2021-09-26 12:09:00,,0826.2,4.99,0.00,30.0,28.6,00.0,39.2,31.7,10.2,0001.3,0012.37,0006.67,0005.90
2021-09-26 12:10:00,,0826.2,5.01,0.00,30.0,28.7,00.0,39.2,31.7,10.1,0001.0,0012.44,0006.61,0005.85
2021-09-26 12:11:00,,0826.2,5.00,0.00,30.0,28.8,00.0,39.2,31.7,10.2,0001.0,0012.52,0006.56,0005.80
2021-09-26 12:12:00,,0826.2,5.00,0.00,30.0,28.8,00.0,39.2,31.7,09.9,0001.5,0012.66,0006.56,0005.80
2021-09-26 12:13:00,,0826.2,5.01,0.00,30.0,28.9,00.0,39.2,31.8,09.8,0001.2,0012.79,0006.59,0005.82
2021-09-26 12:14:00,,0826.2,4.98,0.00,30.1,29.0,00.0,39.2,31.8,09.7,0001.0,0012.39,0006.55,0005.81
2021-09-26 12:15:00,,0826.2,5.00,0.00,30.1,29.0,00.0,39.2,31.8,09.8,0000.8,0012.19,0006.55,0005.83
2021-09-26 12:16:00,,0826.4,5.00,0.00,30.1,29.1,00.0,39.2,31.8,09.7,0000.7,0012.15,0006.58,0005.85
2021-09-26 12:17:00,,0826.2,4.99,0.00,30.1,29.1,00.0,39.2,31.9,09.7,0001.0,0012.29,0006.63,0005.88
2021-09-26 12:18:00,,0826.2,5.01,0.00,30.1,29.1,00.0,39.2,31.9,09.7,0000.8,0012.38,0006.66,0005.91
2021-09-26 12:19:00,,0826.2,4.99,0.00,30.1,29.2,00.0,39.2,31.9,09.6,0000.9,0012.30,0006.76,0005.96
2021-09-26 12:20:00,,0826.2,5.00,0.00,30.2,29.2,00.0,39.2,31.9,09.6,0001.2,0011.89,0006.81,0006.01
2021-09-26 12:21:00,,0826.2,5.01,0.00,30.2,29.2,00.0,39.2,32.0,09.6,0001.3,0011.68,0006.86,0006.07
2021-09-26 12:22:00,,0826.2,5.00,0.00,30.2,29.3,00.0,39.2,32.0,09.6,0001.2,0011.59,0006.96,0006.13
2021-09-26 12:23:00,,0826.3,5.00,0.00,30.2,29.3,00.0,39.3,32.0,09.6,0000.8,0011.61,0006.99,0006.15
2021-09-26 12:24:00,,0826.2,5.00,0.00,30.3,29.3,00.0,39.3,32.0,09.6,0001.1,0011.57,0006.98,0006.15
2021-09-26 12:25:00,,0826.2,5.01,0.00,30.3,29.3,00.0,39.3,32.0,09.6,0001.4,0011.31,0006.95,0006.14
2021-09-26 12:26:00,,0826.2,4.99,0.00,30.3,29.3,00.0,39.3,32.0,09.6,0001.4,0011.41,0006.92,0006.12
2021-09-26 12:27:00,,0826.2,5.01,0.00,30.3,29.4,00.0,39.3,32.0,09.6,0001.1,0011.90,0006.91,0006.11
2021-09-26 12:28:00,,0826.2,5.00,0.00,30.3,29.4,00.0,39.3,32.1,09.6,0001.0,0011.97,0006.91,0006.10
2021-09-26 12:29:00,,0826.2,5.00,0.00,30.3,29.4,00.0,39.4,32.1,09.6,0000.9,0011.97,0006.90,0006.07
2021-09-26 12:30:00,,0826.2,5.01,0.00,30.3,29.4,00.0,39.4,32.1,09.6,0000.6,0012.27,0006.86,0006.05
2021-09-26 12:31:00,,0826.2,5.00,0.00,30.4,29.5,00.0,39.4,32.1,09.5,0000.5,0013.20,0006.84,0006.03
2021-09-26 12:32:00,,0826.3,5.00,0.00,30.4,29.5,00.0,39.4,32.2,09.6,0000.8,0013.26,0006.86,0006.02
2021-09-26 12:33:00,,0826.2,4.99,0.00,30.4,28.7,00.0,39.4,31.9,09.5,0001.2,0013.45,0006.88,0006.01
2021-09-26 12:34:00,,0826.2,5.00,0.00,30.2,26.8,00.0,39.4,31.5,09.6,0001.2,0013.36,0006.89,0006.02
2021-09-26 12:35:00,,0826.2,5.00,0.00,30.1,26.6,00.0,39.3,31.4,09.6,0001.2,0013.36,0006.92,0006.02
2021-09-26 12:36:00,,0826.2,5.01,0.00,30.0,26.9,00.0,39.3,31.4,09.7,0001.4,0013.41,0006.95,0006.02
2021-09-26 12:37:00,,0826.2,5.00,0.00,29.9,27.3,00.0,39.2,31.4,09.8,0001.4,0013.14,0006.98,0006.03
2021-09-26 12:38:00,,0826.2,5.01,0.00,29.9,27.6,00.0,39.2,31.4,09.8,0001.5,0012.48,0006.93,0006.02
2021-09-26 12:39:00,,0826.2,4.99,0.00,29.9,27.9,00.0,39.2,31.5,09.9,0001.5,0012.20,0006.87,0006.02
2021-09-26 12:40:00,,0826.3,4.99,0.00,29.9,28.2,00.0,39.2,31.5,09.9,0001.6,0011.99,0006.80,0006.00
2021-09-26 12:41:00,,0826.3,5.00,0.00,29.9,28.3,00.0,39.1,31.6,09.9,0001.9,0011.54,0006.76,0005.99
2021-09-26 12:42:00,,0826.4,5.01,0.00,29.9,28.5,00.0,39.1,31.6,10.4,0001.6,0011.21,0006.77,0005.99
2021-09-26 12:43:00,,0826.4,4.97,0.00,30.0,28.6,00.0,39.1,31.7,10.4,0001.7,0011.61,0006.80,0006.01
2021-09-26 12:44:00,,0826.4,5.01,0.00,30.0,28.7,00.0,39.1,31.7,10.4,0001.5,0011.47,0006.78,0006.03
2021-09-26 12:45:00,,0826.4,5.00,0.00,30.0,28.7,00.0,39.1,31.7,10.4,0001.9,0011.66,0006.82,0006.03
2021-09-26 12:46:00,,0826.4,4.99,0.00,30.0,28.8,00.0,39.1,31.7,10.3,0001.9,0012.21,0006.83,0006.04
2021-09-26 12:47:00,,0826.4,5.01,0.00,30.0,28.8,00.0,39.1,31.7,10.2,0001.6,0012.18,0006.83,0006.06
2021-09-26 12:48:00,,0826.3,5.00,0.00,30.0,28.9,00.0,39.1,31.7,10.2,0001.9,0012.09,0006.81,0006.06
2021-09-26 12:49:00,,0826.4,4.99,0.00,30.0,29.0,00.0,39.1,31.7,10.2,0001.6,0012.12,0006.82,0006.07
2021-09-26 12:50:00,,0826.3,5.01,0.00,30.0,29.0,00.0,39.1,31.7,10.1,0001.9,0012.85,0006.83,0006.07
2021-09-26 12:51:00,,0826.4,5.01,0.00,30.0,29.1,00.0,39.1,31.8,10.1,0002.2,0013.26,0006.88,0006.09
2021-09-26 12:52:00,,0826.4,5.00,0.00,30.1,29.1,00.0,39.1,31.8,10.1,0001.9,0013.34,0006.93,0006.12
2021-09-26 12:53:00,,0826.5,5.01,0.00,30.1,29.1,00.0,39.1,31.8,10.1,0002.3,0012.68,0006.92,0006.12
2021-09-26 12:54:00,,0826.4,4.99,0.00,30.1,29.2,00.0,39.2,31.9,10.2,0002.1,0012.21,0006.84,0006.10
2021-09-26 12:55:00,,0826.5,4.99,0.00,30.1,29.2,00.0,39.2,31.9,10.2,0002.1,0012.10,0006.83,0006.09
2021-09-26 12:56:00,,0826.5,5.01,0.00,30.2,29.3,00.0,39.2,31.9,10.1,0001.7,0012.03,0006.81,0006.09
2021-09-26 12:57:00,,0826.5,5.01,0.00,30.2,29.3,00.0,39.2,31.9,10.0,0001.1,0011.42,0006.80,0006.08
2021-09-26 12:58:00,,0826.5,4.99,0.00,30.2,29.3,00.0,39.2,32.0,10.0,0001.0,0011.34,0006.75,0006.06
2021-09-26 12:59:00,,0826.5,5.00,0.00,30.2,29.3,00.0,39.2,32.0,10.0,0000.9,0011.54,0006.74,0006.05
